Shreveport, LA

10:13 PM CDT on May 25, 2017 (GMT -0500)
Shreveport Regional

Weather History for KSHV - June, 2013

Change the Weather History Date:

Wednesday, June 5, 2013

  Actual Average Record
Temperature  
Mean Temperature 82 °F 78 °F  
Max Temperature 92 °F 88 °F 100 °F (1875)
Min Temperature 71 °F 68 °F 55 °F (1969)
Degree Days  
Heating Degree Days 0 0  
Month to date heating degree days 0 0  
Since 1 June heating degree days 0 0  
Since 1 July heating degree days 2081 2226  
Cooling Degree Days 17 13  
Month to date cooling degree days 68 63  
Year to date cooling degree days 455 461  
Since 1 June cooling degree days 68 63  
Growing Degree Days 31 (Base 50)    
Moisture  
Dew Point 71 °F    
Average Humidity 72    
Maximum Humidity 93    
Minimum Humidity 50    
Precipitation  
Precipitation 0.00 in 0.16 in 4.02 in (1983)
Month to date precipitation 0.56 0.82  
Year to date precipitation 17.41 23.03  
Snow  
Snow 0.00 in - - ()
Month to date snowfall 0.0  
Since 1 June snowfall 0.0  
Since 1 July snowfall 0.1  
Snow Depth 0.00 in    
Sea Level Pressure  
Sea Level Pressure 29.85 in    
Wind  
Wind Speed 3 mph (East)    
Max Wind Speed 14 mph    
Max Gust Speed 23 mph    
Visibility 9 miles    
Events      
T = Trace of Precipitation, MM = Missing Value Source: NWS Daily Summary

Daily Weather History Graph

Daily Weather History Graph

Search for Another Location

Airport or City:

Trip Planner

Search our weather history database for the weather conditions in past years. The results will help you decide how hot, cold, wet, or windy it might be!

Date:

Astronomy

Jun. 05, 2013 Rise Set
Actual Time 6:08 AM CDT 8:19 PM CDT
Civil Twilight 5:39 AM CDT 8:48 PM CDT
Nautical Twilight 5:05 AM CDT 9:22 PM CDT
Astronomical Twilight 4:28 AM CDT 9:59 PM CDT
Moon 4:04 AM CDT (6/5) 5:53 PM CDT (6/5)
Length of Visible Light 15h 08m
Length of Day
14h 11m
Waning Crescent, 8% of the Moon is Illuminated
Jun 5
Waning Crescent
Jun 8
New
Jun 16
First Quarter
Jun 23
Full
Jun 29
Last Quarter

Hourly Weather History & Observations

Time (CDT) Temp. Heat Index Dew Point Humidity Pressure Visibility Wind Dir Wind Speed Gust Speed Precip Events Conditions
12:56 AM 75.9 °F - 69.1 °F 79% 29.88 in 10.0 mi Calm Calm - N/A   Scattered Clouds
1:56 AM 75.9 °F - 70.0 °F 82% 29.87 in 10.0 mi Calm Calm - N/A   Scattered Clouds
2:56 AM 75.0 °F - 70.0 °F 84% 29.86 in 10.0 mi Calm Calm - N/A   Clear
3:56 AM 73.9 °F - 70.0 °F 87% 29.86 in 9.0 mi Calm Calm - N/A   Clear
4:56 AM 73.0 °F - 70.0 °F 90% 29.86 in 8.0 mi East 3.5 mph - N/A   Partly Cloudy
5:56 AM 72.0 °F - 69.1 °F 91% 29.86 in 7.0 mi ENE 4.6 mph - N/A   Scattered Clouds
6:56 AM 73.0 °F - 70.0 °F 90% 29.88 in 7.0 mi Calm Calm - N/A   Scattered Clouds
7:56 AM 78.1 °F - 71.1 °F 79% 29.90 in 6.0 mi Calm Calm - N/A   Haze
8:56 AM 80.1 °F 83.8 °F 72.0 °F 76% 29.91 in 8.0 mi Calm Calm - N/A   Mostly Cloudy
9:56 AM 84.9 °F 90.7 °F 72.0 °F 65% 29.90 in 10.0 mi Calm Calm - N/A   Scattered Clouds
10:56 AM 87.1 °F 95.4 °F 73.9 °F 65% 29.92 in 10.0 mi North 8.1 mph - N/A   Scattered Clouds
11:56 AM 86.0 °F 93.0 °F 73.0 °F 65% 29.93 in 10.0 mi NNW 5.8 mph 17.3 mph N/A   Mostly Cloudy
12:56 PM 90.0 °F 96.4 °F 71.1 °F 54% 29.90 in 10.0 mi East 6.9 mph - N/A   Mostly Cloudy
1:56 PM 87.1 °F 94.5 °F 73.0 °F 63% 29.86 in 10.0 mi SE 8.1 mph - N/A   Mostly Cloudy
2:56 PM 91.9 °F 99.5 °F 72.0 °F 52% 29.84 in 10.0 mi Calm Calm - N/A   Mostly Cloudy
3:56 PM 89.1 °F 95.0 °F 71.1 °F 55% 29.81 in 10.0 mi WSW 6.9 mph - N/A   Mostly Cloudy
4:56 PM 90.0 °F 94.5 °F 69.1 °F 50% 29.81 in 10.0 mi Variable 3.5 mph - N/A   Mostly Cloudy
5:56 PM 90.0 °F 93.6 °F 68.0 °F 48% 29.77 in 10.0 mi SSW 4.6 mph - N/A   Scattered Clouds
6:56 PM 89.1 °F 95.0 °F 71.1 °F 55% 29.75 in 10.0 mi Calm Calm - N/A   Scattered Clouds
7:56 PM 88.0 °F 94.7 °F 72.0 °F 59% 29.77 in 10.0 mi Calm Calm - N/A   Scattered Clouds
8:56 PM 86.0 °F 92.2 °F 72.0 °F 63% 29.79 in 10.0 mi Calm Calm - N/A   Scattered Clouds
9:56 PM 81.0 °F 85.8 °F 73.0 °F 77% 29.80 in 10.0 mi Calm Calm - N/A   Partly Cloudy
10:56 PM 81.0 °F 86.2 °F 73.9 °F 79% 29.82 in 10.0 mi ENE 3.5 mph - N/A   Scattered Clouds
11:56 PM 80.6 °F 85.4 °F 73.4 °F 79% 29.83 in 10.0 mi East 4.6 mph - N/A   Scattered Clouds